Location: ???
(60.6398°N, 46.9067°E)
Time: 18:25:14
(UTC+00:00)

Meteor 1-26 Rocket - Pass Details

Date: 08 December 2019
Orbit: 814 x 921 km, 81.3° (Epoch: 17 January)

Event Time Altitude Azimuth Distance (km) Brightness Sun altitude
Rises 13:13:18 0° 181° (S) 3,497 7.9 -9.3°
Reaches altitude 10° 13:15:47 10° 178° (S) 2,546 7.1 -9.6°
Maximum altitude 13:21:28 61° 99° (E) 985 4.3 -10.2°
Drops below altitude 10° 13:27:02 10° 21° (NNE) 2,490 6.2 -10.8°
Enters shadow 13:28:24 - 19° (NNE) 3,013 6.6 -10.9°
